Retour au catalogue

STARLINK-35535

ActifCommunicationsVLEO
NORAD 66342·PAYLOAD·🇺🇸 United States

Lancé Nov 6, 2025 depuis Cape Canaveral Space Force Station

Loading…

Prochains Passages (prochaines 24 heures)

TLE

FraisSource: CelesTrak SupGP

Époque: Sep 14, 2026, 22:56 UTC

1 66342C 25253Z   26257.95604167  .00008538  00000+0  30922-3 0  2577
2 66342  42.9999 223.7193 0001415 261.7991 301.2819 15.27575869    18

Suivez STARLINK-35535 en temps réel avec AllMySat

Download on the App Store